Regional Weather Roundup
Issued by NWS

Home | Current Version | Previous Version | Text Only | Print | Product List | Glossary On
Versions: 1 2 3 4 5 6 7 8 9 10 11 12 13 14 15 16 17 18 19 20 21 22 23 24 25 26 27 28 29 30 31 32 33 34 35 36 37 38 39 40 41 42 43 44 45 46 47 48 49 50
000
ASUS43 KOAX 300410
RWRNE

WEATHER ROUNDUP FOR NEBRASKA
NATIONAL WEATHER SERVICE OMAHA NE
1100 PM CDT SUN MAR 29 2015

NOTES: SATELLITE DATA IS BEING USED TO AUGMENT CLOUD COVER ABOVE
       12000 FEET.
       "FAIR" INDICATES FEW OR NO CLOUDS BELOW 12,000 FEET WITH NO
       SIGNIFICANT WEATHER AND/OR OBSTRUCTIONS TO VISIBILITY.

  * THESE STATIONS DO NOT REPORT WEATHER SUCH AS RAIN...SNOW OR FOG.

NEZ001>004-019>022-054>056-300500-
NEBRASKA PANHANDLE

CITY           SKY/WX    TMP DP  RH WIND       PRES   REMARKS
SCOTTSBLUFF    PTCLDY    43  23  45 SE6       30.12S
ALLIANCE       PTCLDY    46  25  43 S12       30.09F
CHADRON        MOCLDY    45  27  49 CALM      30.07S
KIMBALL        CLEAR     39  23  51 S8        30.14F WCI  33
SIDNEY         CLEAR     38  24  57 S8        30.15F WCI  32
$$

NEZ057>060-069>072-079>082-300500-
SOUTHWEST NEBRASKA

CITY           SKY/WX    TMP DP  RH WIND       PRES   REMARKS
NORTH PLATTE   CLEAR     36  24  62 SE5       30.15R WCI  32
IMPERIAL         N/A     44  18  35 S6        30.17R
LEXINGTON      CLEAR     40  17  38 S6        30.15F
MCCOOK         CLEAR     47  15  27 SE6       30.17S
OGALLALA       CLEAR     35  20  54 CALM      30.15S
$$

NEZ005>010-023>029-035>040-094-300500-
NORTH CENTRAL NEBRASKA

CITY           SKY/WX    TMP DP  RH WIND       PRES   REMARKS
VALENTINE      MOCLDY    39  23  52 SW9       30.08F WCI  33
AINSWORTH      MOCLDY    40  23  52 S7        30.10S WCI  35
BROKEN BOW     PTCLDY    31  15  52 CALM      30.13F
O`NEILL        PTCLDY    40  26  56 SW7       30.10F
ORD            PTCLDY    37  14  38 S7        30.13S WCI  32
THEDFORD       MOCLDY    44  19  36 CALM      30.13S
$$

NEZ041-046>049-061>064-073>077-083>087-300500-
SOUTH CENTRAL NEBRASKA

CITY           SKY/WX    TMP DP  RH WIND       PRES   REMARKS
GRAND ISLAND   PTCLDY    41  20  43 S3        30.16F
AURORA         CLEAR     37  18  45 SW3       30.16S
HASTINGS       PTCLDY    42  18  37 CALM      30.16S
HEBRON         CLEAR     38  25  60 CALM      30.17S
HOLDREGE       PTCLDY    41  12  31 S3        30.16F
KEARNEY *      PTCLDY    43  18  36 S5        30.17S
YORK           CLEAR     37  23  56 CALM      30.16S
$$

NEZ011>018-030>034-042>045-300500-
NORTHEAST NEBRASKA

CITY           SKY/WX    TMP DP  RH WIND       PRES   REMARKS
NORFOLK        CLEAR     40  23  50 SW7       30.11S
ALBION         PTCLDY    40  18  41 CALM      30.13S
BLAIR          CLEAR     48  19  32 W7        30.13R
COLUMBUS *     CLEAR     32  18  55 NW3       30.15S
FREMONT        CLEAR     45  24  43 CALM      30.13S
TEKAMAH        CLEAR     37  20  50 W15G30    30.12R WCI  28
WAYNE          CLEAR     32  21  63 S5        30.11S WCI  27
$$

NEZ050>053-065>068-078-088>093-300500-
SOUTHEAST NEBRASKA

CITY           SKY/WX    TMP DP  RH WIND       PRES   REMARKS
LINCOLN        CLEAR     37  24  59 CALM      30.16S
OMAHA EPPLEY   CLEAR     42  26  53 CALM      30.13R
BEATRICE       FAIR      38  26  60 CALM      30.16S
FALLS CITY     CLEAR     45  27  49 W6        30.15R
NEBRASKA CITY  CLEAR     47  20  33 W7        30.14S
PLATTSMOUTH    CLEAR     47  17  31 W6        30.13F
$$

NEZ044-045-051>053-067-300500-
OMAHA AREA

CITY           SKY/WX    TMP DP  RH WIND       PRES   REMARKS
OMAHA EPPLEY   CLEAR     42  26  53 CALM      30.13R
BLAIR          CLEAR     48  19  32 W7        30.13R
FREMONT        CLEAR     45  24  43 CALM      30.13S
MILLARD        CLEAR     42  30  63 CALM      30.14R
OFFUTT AFB     CLEAR     43  22  43 W1        30.12S
PLATTSMOUTH    CLEAR     47  17  31 W6        30.13F
WAHOO          FAIR      44  22  40 W6        30.13S
$$


USA.gov is the U.S. government's official web portal to all federal, state and local government web resources and services.